Weather in Valday

Russia / Republic of Karelia     63°25′44″N   35°30′51″E
temp.,
°C
wind,
m/s
gust,
m/s
humid.,
%
clouds,
%
prec.,
mm/h
press.,
hPa
HPBL,
m
21 january, fri
fri2100:00−1sse2698100 1.3 988277
03:00−2sse2698100 3.1 989276
06:00−2s2598100 1.4 990224
09:00−3n1298100 2.8 993149
12:00−4ne1497100 1.0 996222
15:00−4e0397100 1.9 999222
18:00−8nne2398100 0.3 100339
21:00−7n2496100 0.3 100689
22 january, sat
sat2200:00−7n269697 0.1 1008168
03:00−7n389688 0.3 1010199
06:00−7ne379591 0.2 1012196
09:00−9nne369798 0.3 1014128
12:00−8nne379775 0.1 1016151
15:00−9nne259874 0.1 101787
18:00−10ne229791 0.1 101941
21:00−12se229870 0.1 102039
23 january, sun
sun2300:00−17sse229970 0.0 102223
03:00−18s2210078 0.0 102326
06:00−17s26100100 0.0 102276
09:00−15s399893 0.1 1023150
12:00−13ssw41196100 0.0 1024249
15:00−12s51294100 0.0 1023285
18:00−10ssw61392100 0.0 1023354
21:00−10ssw61494100 0.1 1023373
24 january, mon
mon2400:00−8ssw61393100 0.3 1023407
03:00−6ssw71593100 0.4 1022411
06:00−5ssw61594100 0.1 1021437
09:00−4ssw71593100 0.3 1020478
12:00−4ssw71795100 0.0 1019567
15:00−3ssw81895100 0.1 1016664
18:00−3ssw92193100 0.1 1013828
21:00−2ssw102092100 0.3 1010991
25 january, tue
tue2500:00−3ssw101990100 0.4 1007888
03:00−4ssw91992100 0.7 1006833
06:00−3ssw81692100 0.5 1005692
09:00−5ssw51294100 0.6 1007350
12:00−4ssw4795100 0.1 1008291
15:00−4s2496100 0.2 1008208
18:00−6e1197100 0.1 100920
21:00−8nne1198100 0.3 101114